Tracking 21473 objects as of 18-Sep-2020
HD Live streaming from Space Station
objects crossing your sky now

UNITE

Track UNITE now!
10-day predictions


NORAD ID: 44031
Int'l Code: 1998-067PX
Perigee: 383.6 km
Apogee: 388.9 km
Inclination: 51.6 °
Period: 92.1 minutes
Semi major axis: 6757 km
RCS: Unknown
Launch date: November 20, 1998
Source: United States (US)
Launch site: TYURATAM MISSILE AND SPACE COMPLEX (TTMTR)
aabbcc
Your satellite tracking list
Your tracking list is empty




NASA's NSSDC Master Catalog

Two Line Element Set (TLE):
1 44031U 98067PX  20261.88029148 +.00009456 +00000-0 +10803-3 0  9992
2 44031 051.6368 215.6661 0003905 072.1903 287.9517 15.62951403092869
Source of the keplerian elements: AFSPC